Change the Weather History Date:

Thursday, November 8, 2012

  Actual Average Record
Temperature  
Mean Temperature 38 °F 45 °F  
Max Temperature 43 °F 55 °F 77 °F (1975)
Min Temperature 32 °F 35 °F 15 °F (1960)
Degree Days  
Heating Degree Days 27 20  
Month to date heating degree days 197 152  
Since 1 July heating degree days 576 681  
Cooling Degree Days 0 0  
Month to date cooling degree days 0 0  
Year to date cooling degree days 981 756  
Moisture  
Dew Point 27 °F    
Average Humidity 66    
Maximum Humidity 79    
Minimum Humidity 53    
Precipitation  
Precipitation 0.05 in 0.12 in 2.02 in (1972)
Month to date precipitation 0.17 1.01  
Year to date precipitation 33.66 39.53  
Snow  
Snow 0.90 in 0.10 in 0.90 in (2012)
Month to date snowfall 2.5 0.3  
Since 1 July snowfall 2.5 0.3  
Since 1 September snowfall 2.5 0.3  
Snow Depth 2.00 in    
Sea Level Pressure  
Sea Level Pressure 29.75 in    
Wind  
Wind Speed 15 mph (North)    
Max Wind Speed 29 mph    
Max Gust Speed 43 mph    
Visibility 8 miles    
Events Rain , Snow    
T = Trace of Precipitation, MM = Missing Value Source: NWS Daily Summary

Daily Weather History Graph

Daily Weather History Graph

Search for Another Location

Airport or City:

Trip Planner

Search our weather history database for the weather conditions in past years. The results will help you decide how hot, cold, wet, or windy it might be!

Date:

Astronomy

Nov. 08, 2012 Rise Set
Actual Time 6:32 AM EST 4:36 PM EST
Civil Twilight 6:02 AM EST 5:05 PM EST
Nautical Twilight 5:29 AM EST 5:38 PM EST
Astronomical Twilight 4:56 AM EST 6:11 PM EST
Moon 12:19 AM EST (11/8) 1:20 PM EST (11/8)
Length of Visible Light 11h 02m
Length of Day
10h 03m
Waning Crescent, 33% of the Moon is Illuminated
Nov 8
Waning Crescent
Nov 13
New
Nov 20
First Quarter
Nov 28
Full
Dec 6
Last Quarter

Hourly Weather History & Observations

Time (EST) Temp. Windchill Dew Point Humidity Pressure Visibility Wind Dir Wind Speed Gust Speed Precip Events Conditions
12:51 AM 33.1 °F 21.2 °F 25.0 °F 72% 29.75 in 5.0 mi North 20.7 mph 31.1 mph 0.00 in Snow Light Snow
1:51 AM 34.0 °F 23.0 °F 25.0 °F 70% 29.73 in 6.0 mi North 18.4 mph 29.9 mph 0.00 in Snow Light Snow
2:29 AM 33.8 °F 22.5 °F 26.6 °F 75% 29.74 in 4.0 mi North 19.6 mph 26.5 mph N/A Snow Light Snow
2:51 AM 33.1 °F 23.4 °F 27.0 °F 78% 29.74 in 2.5 mi North 13.8 mph 24.2 mph 0.01 in Snow Light Snow
3:28 AM 33.8 °F 25.3 °F 26.6 °F 75% 29.73 in 4.0 mi North 11.5 mph - 0.00 in Snow Light Snow
3:51 AM 35.1 °F 24.8 °F 25.0 °F 67% 29.73 in 10.0 mi North 17.3 mph 25.3 mph 0.00 in Rain Light Rain
4:51 AM 33.1 °F 22.2 °F 28.0 °F 82% 29.73 in 4.0 mi North 17.3 mph 27.6 mph 0.00 in Snow Light Snow
5:20 AM 33.8 °F 22.8 °F 26.6 °F 75% 29.71 in 8.0 mi North 18.4 mph 27.6 mph 0.00 in Snow Light Snow
5:51 AM 35.1 °F 24.8 °F 25.0 °F 67% 29.71 in 9.0 mi North 17.3 mph 26.5 mph 0.00 in Snow Light Snow
6:51 AM 36.0 °F 24.2 °F 25.0 °F 64% 29.70 in 10.0 mi North 24.2 mph 31.1 mph 0.00 in   Mostly Cloudy
7:51 AM 37.0 °F 27.4 °F 25.0 °F 62% 29.72 in 10.0 mi North 17.3 mph 26.5 mph N/A   Overcast
8:51 AM 37.9 °F 28.2 °F 25.0 °F 60% 29.72 in 10.0 mi North 18.4 mph 24.2 mph N/A   Overcast
9:51 AM 39.0 °F 29.6 °F 25.0 °F 57% 29.72 in 10.0 mi North 18.4 mph 26.5 mph N/A   Overcast
10:51 AM 39.9 °F 31.4 °F 26.1 °F 58% 29.70 in 10.0 mi North 16.1 mph 23.0 mph N/A   Overcast
11:51 AM 42.1 °F 32.6 °F 27.0 °F 55% 29.69 in 10.0 mi North 23.0 mph 34.5 mph N/A   Overcast
12:51 PM 42.1 °F 34.2 °F 28.9 °F 60% 29.69 in 10.0 mi North 16.1 mph 29.9 mph N/A   Overcast
1:51 PM 39.9 °F 34.5 °F 35.1 °F 83% 29.71 in 10.0 mi NNW 8.1 mph - 0.02 in Rain Light Rain
2:51 PM 39.9 °F 32.9 °F 33.1 °F 77% 29.72 in 7.0 mi North 11.5 mph - 0.01 in Rain Light Rain
3:51 PM 39.9 °F 31.8 °F 30.0 °F 68% 29.73 in 7.0 mi NNW 15.0 mph 19.6 mph 0.01 in Rain Light Ice Pellets
4:37 PM 39.2 °F 31.2 °F 30.2 °F 70% 29.75 in 10.0 mi North 13.8 mph - 0.00 in   Overcast
4:51 PM 39.9 °F 32.1 °F 28.9 °F 65% 29.76 in 10.0 mi North 13.8 mph 21.9 mph 0.00 in   Overcast
5:51 PM 39.0 °F 31.0 °F 28.0 °F 65% 29.79 in 10.0 mi NNW 13.8 mph 23.0 mph N/A   Overcast
6:51 PM 39.0 °F 31.4 °F 28.0 °F 65% 29.81 in 10.0 mi NNW 12.7 mph 31.1 mph N/A   Overcast
7:51 PM 39.0 °F 31.0 °F 28.0 °F 65% 29.82 in 10.0 mi NNW 13.8 mph 27.6 mph N/A   Overcast
8:51 PM 39.0 °F 30.6 °F 28.0 °F 65% 29.82 in 10.0 mi NNW 15.0 mph 23.0 mph N/A   Overcast
9:51 PM 39.0 °F 32.3 °F 28.0 °F 65% 29.83 in 10.0 mi North 10.4 mph - N/A   Overcast
10:51 PM 39.9 °F 32.9 °F 28.9 °F 65% 29.83 in 10.0 mi NNW 11.5 mph - N/A   Overcast
11:51 PM 39.0 °F 33.4 °F 28.9 °F 67% 29.84 in 10.0 mi NNW 8.1 mph - N/A   Overcast